| time (UTC) | temp F | wind direction | speed MPH | gust MPH | rain 1hr in | rain 24hr in | rain mn in | humidity % | barometer mb |
| 20260903114506 | 68 | 83 | 0.0 | 0.0 | 0.00 | 0.35 | 0.35 | 96 | 1017.0 |
| 20260903113008 | 67 | 82 | 0.0 | 1.0 | 0.00 | 0.35 | 0.35 | 96 | 1017.0 |
| 20260903111504 | 67 | 83 | 0.0 | 0.0 | 0.00 | 0.35 | 0.35 | 96 | 1017.1 |
| 20260903110003 | 67 | 83 | 0.0 | 0.0 | 0.00 | 0.35 | 0.35 | 96 | 1016.9 |
| 20260903104502 | 67 | 83 | 0.0 | 1.0 | 0.00 | 0.35 | 0.35 | 96 | 1016.8 |
| 20260903103101 | 67 | 83 | 0.0 | 0.0 | 0.00 | 0.35 | 0.35 | 96 | 1016.9 |
| 20260903101603 | 66 | 83 | 0.0 | 0.0 | 0.00 | 0.35 | 0.35 | 96 | 1016.5 |
| 20260903100040 | 66 | 83 | 0.0 | 0.0 | 0.00 | 0.35 | 0.35 | 96 | 1016.3 |
| 20260903094538 | 66 | 83 | 0.0 | 0.0 | 0.00 | 0.35 | 0.35 | 96 | 1016.1 |
| 20260903093030 | 66 | 83 | 0.0 | 0.0 | 0.00 | 0.35 | 0.35 | 96 | 1016.3 |
| 20260903091529 | 65 | 83 | 0.0 | 0.0 | 0.00 | 0.35 | 0.35 | 96 | 1016.5 |
| 20260903090024 | 65 | 83 | 0.0 | 0.0 | 0.00 | 0.35 | 0.35 | 96 | 1016.6 |
| 20260903084524 | 65 | 83 | 0.0 | 0.0 | 0.00 | 0.35 | 0.35 | 96 | 1016.5 |
| 20260903083024 | 65 | 83 | 0.0 | 0.0 | 0.00 | 0.35 | 0.35 | 96 | 1016.7 |
| 20260903081520 | 65 | 82 | 0.0 | 0.0 | 0.00 | 0.35 | 0.35 | 95 | 1016.5 |
| 20260903080018 | 65 | 83 | 0.0 | 0.0 | 0.01 | 0.35 | 0.35 | 95 | 1016.9 |
| 20260903074518 | 65 | 332 | 0.0 | 0.0 | 0.01 | 0.35 | 0.35 | 95 | 1017.2 |
| 20260903073008 | 65 | 332 | 0.0 | 0.0 | 0.02 | 0.35 | 0.35 | 95 | 1017.2 |
| 20260903071506 | 65 | 332 | 0.0 | 0.0 | 0.12 | 0.35 | 0.35 | 95 | 1017.3 |
| 20260903070004 | 64 | 332 | 0.0 | 0.0 | 0.31 | 0.34 | 0.34 | 95 | 1017.3 |
| 20260903064503 | 64 | 130 | 0.0 | 2.0 | 0.34 | 0.34 | 0.34 | 94 | 1016.7 |
| 20260903063101 | 64 | 91 | 0.0 | 2.0 | 0.34 | 0.34 | 0.34 | 94 | 1017.1 |
| 20260903061605 | 64 | 86 | 0.0 | 1.0 | 0.26 | 0.26 | 0.26 | 94 | 1018.3 |
| 20260903060055 | 65 | 31 | 0.0 | 0.0 | 0.03 | 0.03 | 0.03 | 93 | 1018.6 |
| 20260903054553 | 65 | 31 | 0.0 | 0.0 | 0.00 | 0.00 | 0.00 | 92 | 1018.9 |
| 20260903053035 | 65 | 31 | 0.0 | 0.0 | 0.00 | 0.00 | 0.00 | 91 | 1019.0 |
| 20260903051533 | 65 | 31 | 0.0 | 1.0 | 0.00 | 0.00 | 0.00 | 90 | 1019.0 |
| 20260903050013 | 66 | 12 | 0.0 | 0.0 | 0.00 | 0.00 | 0.00 | 88 | 1019.4 |
| 20260903044509 | 66 | 12 | 0.0 | 1.0 | 0.00 | 0.00 | 0.00 | 88 | 1019.6 |
| 20260903043048 | 66 | 309 | 0.0 | 1.0 | 0.00 | 0.00 | 0.00 | 88 | 1019.7 |
| 20260903041546 | 66 | 249 | 0.0 | 0.0 | 0.00 | 0.00 | 0.00 | 87 | 1019.9 |
| 20260903040026 | 66 | 91 | 0.0 | 2.0 | 0.00 | 0.00 | 0.00 | 87 | 1019.7 |
| 20260903034537 | 66 | 124 | 0.0 | 4.0 | 0.00 | 0.00 | 0.00 | 86 | 1019.6 |
| 20260903033007 | 66 | 109 | 0.0 | 2.0 | 0.00 | 0.00 | 0.00 | 86 | 1019.1 |
| 20260903031507 | 65 | 64 | 0.0 | 3.0 | 0.00 | 0.00 | 0.00 | 85 | 1019.8 |
| 20260903030045 | 65 | 82 | 0.0 | 2.0 | 0.00 | 0.00 | 0.00 | 85 | 1020.0 |
| 20260903024549 | 65 | 69 | 0.0 | 2.0 | 0.00 | 0.00 | 0.00 | 84 | 1020.4 |
| 20260903023032 | 65 | 124 | 0.0 | 1.0 | 0.00 | 0.00 | 0.00 | 84 | 1020.6 |
| 20260903021532 | 66 | 78 | 0.0 | 1.0 | 0.00 | 0.00 | 0.00 | 83 | 1020.7 |
| 20260903020047 | 66 | 138 | 0.0 | 2.0 | 0.00 | 0.00 | 0.00 | 83 | 1020.9 |
| 20260903014532 | 65 | 281 | 0.0 | 4.0 | 0.00 | 0.00 | 0.00 | 82 | 1020.7 |
| 20260903013029 | 66 | 111 | 0.0 | 3.0 | 0.00 | 0.00 | 0.00 | 82 | 1020.6 |
| 20260903011530 | 65 | 89 | 0.0 | 4.0 | 0.00 | 0.00 | 0.00 | 82 | 1020.8 |
| 20260903010028 | 66 | 243 | 0.0 | 4.0 | 0.00 | 0.00 | 0.00 | 82 | 1020.9 |
| 20260903004527 | 66 | 68 | 0.0 | 0.0 | 0.00 | 0.00 | 0.00 | 82 | 1021.3 |
| 20260903003014 | 66 | 77 | 1.0 | 3.0 | 0.00 | 0.00 | 0.00 | 82 | 1020.9 |
| 20260903001514 | 66 | 79 | 1.0 | 5.0 | 0.00 | 0.00 | 0.00 | 81 | 1020.5 |
| 20260903000013 | 66 | 66 | 0.0 | 4.0 | 0.00 | 0.02 | 0.00 | 82 | 1020.5 |
| 20260902234517 | 66 | 141 | 0.0 | 2.0 | 0.00 | 0.02 | 0.00 | 82 | 1020.7 |
| 20260902233014 | 66 | 46 | 0.0 | 0.0 | 0.00 | 0.02 | 0.00 | 83 | 1021.0 |
| 20260902231515 | 67 | 126 | 0.0 | 1.0 | 0.00 | 0.02 | 0.00 | 82 | 1021.1 |
| 20260902230010 | 67 | 138 | 0.0 | 1.0 | 0.00 | 0.08 | 0.00 | 82 | 1021.5 |
| 20260902224509 | 68 | 134 | 0.0 | 2.0 | 0.00 | 0.08 | 0.00 | 82 | 1021.7 |
| 20260902223058 | 68 | 81 | 0.0 | 1.0 | 0.00 | 0.08 | 0.00 | 81 | 1022.0 |
| 20260902221551 | 68 | 71 | 0.0 | 1.0 | 0.00 | 0.08 | 0.00 | 80 | 1022.1 |
| 20260902220033 | 68 | 87 | 0.0 | 1.0 | 0.00 | 0.08 | 0.00 | 80 | 1022.0 |
| 20260902214533 | 68 | 150 | 0.0 | 3.0 | 0.00 | 0.08 | 0.00 | 78 | 1021.9 |
| 20260902213032 | 69 | 205 | 1.0 | 4.0 | 0.00 | 0.08 | 0.00 | 77 | 1021.7 |
| 20260902211530 | 69 | 282 | 0.0 | 5.0 | 0.00 | 0.08 | 0.00 | 78 | 1021.3 |
| 20260902210030 | 70 | 150 | 0.0 | 6.0 | 0.00 | 0.08 | 0.00 | 77 | 1021.4 |
| 20260902204529 | 70 | 169 | 0.0 | 4.0 | 0.00 | 0.08 | 0.00 | 77 | 1021.2 |
| 20260902203028 | 70 | 89 | 0.0 | 3.0 | 0.00 | 0.08 | 0.00 | 79 | 1021.4 |
| 20260902201529 | 70 | 101 | 0.0 | 5.0 | 0.00 | 0.08 | 0.00 | 78 | 1021.3 |
| 20260902200010 | 70 | 119 | 0.0 | 3.0 | 0.00 | 0.08 | 0.00 | 77 | 1021.5 |
| 20260902194516 | 70 | 115 | 0.0 | 1.0 | 0.00 | 0.08 | 0.00 | 76 | 1022.0 |
| 20260902193057 | 71 | 70 | 0.0 | 2.0 | 0.00 | 0.08 | 0.00 | 75 | 1022.3 |
| 20260902191551 | 71 | 96 | 0.0 | 2.0 | 0.00 | 0.08 | 0.00 | 73 | 1022.1 |
| 20260902190034 | 72 | 65 | 0.0 | 5.0 | 0.00 | 0.08 | 0.00 | 71 | 1022.0 |
| 20260902184533 | 72 | 358 | 0.0 | 5.0 | 0.00 | 0.08 | 0.00 | 70 | 1021.7 |
| 20260902183024 | 73 | 53 | 0.0 | 8.0 | 0.00 | 0.08 | 0.00 | 66 | 1021.9 |
| 20260902181522 | 73 | 103 | 0.0 | 5.0 | 0.00 | 0.08 | 0.00 | 68 | 1022.2 |
| 20260902180022 | 74 | 78 | 0.0 | 3.0 | 0.00 | 0.08 | 0.00 | 68 | 1022.4 |
| 20260902174521 | 73 | 37 | 1.0 | 4.0 | 0.00 | 0.08 | 0.00 | 64 | 1022.5 |
| 20260902173035 | 74 | 111 | 2.0 | 5.0 | 0.00 | 0.08 | 0.00 | 61 | 1022.6 |
| 20260902171518 | 74 | 180 | 0.0 | 4.0 | 0.00 | 0.08 | 0.00 | 67 | 1022.1 |
| 20260902170017 | 73 | 63 | 2.0 | 6.0 | 0.00 | 0.08 | 0.00 | 67 | 1022.1 |
| 20260902164516 | 73 | 131 | 0.0 | 4.0 | 0.00 | 0.08 | 0.00 | 71 | 1022.3 |
| 20260902163015 | 72 | 44 | 2.0 | 5.0 | 0.00 | 0.08 | 0.00 | 69 | 1022.2 |
| 20260902161558 | 73 | 97 | 0.0 | 5.0 | 0.00 | 0.08 | 0.00 | 69 | 1022.4 |
| 20260902160115 | 73 | 89 | 1.0 | 5.0 | 0.00 | 0.08 | 0.00 | 67 | 1022.4 |
| 20260902154547 | 73 | 109 | 1.0 | 5.0 | 0.00 | 0.08 | 0.00 | 69 | 1022.6 |
| 20260902153043 | 73 | 66 | 1.0 | 4.0 | 0.00 | 0.08 | 0.00 | 68 | 1022.6 |
| 20260902151540 | 73 | 71 | 0.0 | 4.0 | 0.00 | 0.08 | 0.00 | 70 | 1022.7 |
| 20260902150039 | 72 | 279 | 0.0 | 1.0 | 0.00 | 0.12 | 0.00 | 68 | 1022.7 |
| 20260902144541 | 71 | 307 | 0.0 | 3.0 | 0.00 | 0.12 | 0.00 | 71 | 1022.7 |
| 20260902143043 | 72 | 53 | 0.0 | 4.0 | 0.00 | 0.12 | 0.00 | 71 | 1022.6 |
| 20260902141535 | 71 | 205 | 0.0 | 1.0 | 0.00 | 0.12 | 0.00 | 76 | 1022.5 |
| 20260902140036 | 69 | 66 | 2.0 | 5.0 | 0.00 | 0.18 | 0.00 | 75 | 1022.6 |
| 20260902134527 | 68 | 55 | 0.0 | 3.0 | 0.00 | 0.18 | 0.00 | 80 | 1022.5 |
| 20260902133023 | 67 | 235 | 0.0 | 5.0 | 0.00 | 0.18 | 0.00 | 83 | 1022.3 |
| 20260902131512 | 66 | 75 | 0.0 | 4.0 | 0.00 | 0.18 | 0.00 | 84 | 1022.2 |
| 20260902130006 | 65 | 63 | 0.0 | 1.0 | 0.00 | 0.19 | 0.00 | 85 | 1022.1 |
| 20260902124505 | 64 | 267 | 0.0 | 1.0 | 0.00 | 0.19 | 0.00 | 88 | 1022.0 |
| 20260902123003 | 64 | 27 | 0.0 | 1.0 | 0.00 | 0.19 | 0.00 | 88 | 1022.2 |
| 20260902121603 | 63 | 94 | 0.0 | 2.0 | 0.00 | 0.19 | 0.00 | 89 | 1022.3 |
| 20260902120058 | 63 | 98 | 0.0 | 6.0 | 0.00 | 0.19 | 0.00 | 89 | 1022.3 |